Flag for U.S.A. Weather past 2 weeks in Casper, Wyoming, U.S.A.

Now
78 °F

Sunny.


Feels Like: 78 °F
Forecast: 63 / 92 °F
Wind: 10 mph from East

Location: Natrona County International Airport

Current Time: Jun 29, 2015 at 10:26:01 PM

Latest Report: Jun 29, 2015 at 8:53 PM


Visibility: 10 mi

Pressure: 29.95 "Hg

Humidity: 28%

Dew point: 42 °F

Location of CasperLocation

Historic Weather in Casper — Graph

°F

Casper temperature yesterday

Maximum temperature yesterday: 90 °F (at 1:53 PM)
Minimum temperature yesterday: 54 °F (at 3:53 AM)
Average temperature yesterday: 72 °F

Past Weeks' High & Low Weather Summary

 TemperatureHumidityPressure
High93 °F (Jun 19, 2:53 PM)100% (Jun 19, 6:53 AM)30.21 "Hg (Jun 19, 6:53 AM)
Low46 °F (Jun 20, 4:53 AM)10% (Jun 19, 1:53 PM)29.60 "Hg (Jun 19, 4:53 PM)
Average69 °F57%29.94 "Hg
* Reported Jun 14 8:53 PM — Jun 29 8:53 PM, Casper, Weather by CustomWeather, © 2015

Note: Actual official high and low records may vary slightly from our data, if they occured in-between our weather recording intervals... More about our weather records

Advertising

Casper weather history for previous 24 hours

 ConditionsComfort  
Time TempWeatherWind HumidityBarometerVisibility
8:53 PM
Mon, Jun 29
78 °FSunny.10 mph28%29.95 "Hg10 mi
7:53 PM84 °FSunny.8 mph19%29.94 "Hg10 mi
6:53 PM88 °FSunny.10 mph17%29.95 "Hg10 mi
5:53 PM89 °FSunny.6 mph15%29.97 "Hg10 mi
4:53 PM91 °FSunny.7 mph15%29.97 "Hg10 mi
3:53 PM91 °FSunny.6 mph16%30.00 "Hg10 mi
2:53 PM90 °FSunny.7 mph15%30.01 "Hg10 mi
1:53 PM89 °FSunny.12 mph16%30.03 "Hg10 mi
12:53 PM89 °FSunny.13 mph19%30.03 "Hg10 mi
11:53 AM88 °FSunny.7 mph22%30.04 "Hg10 mi
10:53 AM82 °FSunny.3 mph28%30.05 "Hg10 mi
9:53 AM78 °FSunny.5 mph37%30.05 "Hg10 mi
8:53 AM75 °FSunny.14 mph40%30.04 "Hg10 mi
7:53 AM69 °FSunny.10 mph53%30.06 "Hg10 mi
6:53 AM61 °FSunny.10 mph65%30.04 "Hg10 mi
5:53 AM55 °FClear.9 mph77%30.03 "Hg10 mi
4:53 AM56 °FClear.6 mph77%30.01 "Hg10 mi
3:53 AM54 °FClear.7 mph83%30.02 "Hg10 mi
2:53 AM54 °FClear.5 mph86%30.02 "Hg10 mi
1:53 AM54 °FClear.No wind86%30.02 "Hg10 mi
12:53 AM57 °FClear.3 mph81%30.02 "Hg10 mi
11:53 PM
Sun, Jun 28
58 °FClear.3 mph75%30.02 "Hg10 mi
10:53 PM61 °FClear.No wind72%30.02 "Hg10 mi
Weather by CustomWeather, © 2015

See weather overviewHow to use our weather pages